Reflectivity
-20 -20 -20 -20 -20 -20 -20 5 22 21 12 17 14 -20 -20 -20 -20 -20 -20 -20 13 17 15 23 14 6 -8 -19 1 -17 -20 -20 2 -18 -20 11 -20 -20
-20 -20 -20 -20 -20 -20 -20 -20 15 -8 21 17 10 7 -20 2 -17 -20 -20 -20 -0 3 3 16 29 19 16 13 11 -9 -20 -20 -20 23 -20 24 -1 1
-20 -20 -20 -9 3 20 19 9 -5 22 -4 -20 20 -20 -20 -20 -20 -8 -20 -20 -20 -12 -20 -18 3 10 10 -1 17 20 -8 4 -5 -11 -20 0 21 24
-20 -20 -20 -20 -20 -9 -20 -20 -18 26 -10 -8 -20 -20 -20 -20 -20 -20 -20 -20 -20 -19 25 -20 -20 -20 -20 -20 -7 -15 -13 -4 -13 -2 -20 -20 -18 17
-20 -20 -20 -20 -20 -20 -18 11 3 0 29 -10 17 -2 12 -20 -20 -20 -20 -20 -20 12 20 12 21 -17 -20 -20 -20 -20 -13 -20 -20 -20 -1 -20 -20 -20
-20 -18 -1 -20 -20 -20 17 26 26 30 18 -6 9 15 -20 -20 -2 -10 -20 -20 -20 -20 -20 -20 -20 -20 -20 -20 -20 -20 -20 -20 -20 -20 -20 -20 -20 -20
-20 -20 -20 -19 -20 -20 1 -6 28 27 -1 18 -3 -15 -16 -3 -10 -2 -10 -20 -20 -20 -20 -20 -20 -20 -20 -20 2 10 14 13 5 -20 -20 -20 -20 -10
-20 -20 -20 11 -20 -19 -20 18 1 2 -20 -3 -14 21 16 -18 -1 -20 -20 -20 -20 -20 -19 -20 9 8 -18 -10 -18 7 -20 4 12 8 -20 -20 -10 -14
-20 -20 -20 -4 4 -20 11 11 -6 -4 10 -18 25 -20 -20 -19 -8 -19 -20 -20 -20 -20 -20 -20 -15 17 15 25 -3 -20 -20 -20 -18 7 10 -4 -20 -18
0 -9 4 1 7 -1 4 8 -1 -10 -15 -19 -20 -20 -20 -20 -20 -20 -2 -1 -1 -20 -20 -20 -20 6 17 -20 -13 -8 -20 -20 -11 9 13 9 11 14
10 11 7 -4 18 13 -1 4 10 5 13 12 8 4 7 7 -14 -17 -20 8 -11 -20 -20 -20 -18 2 8 -17 -14 3 6 6 -18 6 5 11 13 10
13 14 17 3 9 -8 -20 -20 18 4 8 6 -15 -0 5 -14 -0 -10 -20 -20 -15 9 7 24 11 3 -18 -20 -20 -20 -18 16 12 15 10 9 10 -6
-3 14 15 12 6 12 13 -11 1 0 10 -6 -20 -20 -20 -20 -20 -10 6 14 -2 4 14 15 2 -18 -19 -14 -6 -11 -12 -5 -13 9 19 10 -19 -20
-2 9 12 11 4 6 9 11 11 17 7 11 11 6 9 23 13 31 -3 20 20 23 23 21 18 13 5 -17 12 20 13 19 14 9 -18 -20 -20 -20
-18 -18 -20 -16 -12 -13 8 8 16 2 5 12 -4 2 3 8 18 16 24 26 26 15 7 10 24 33 32 30 34 29 13 -12 -20 -20 -20 -20 -20 -20
-20 -20 -20 -20 -20 -20 -16 -15 -10 -8 2 9 10 11 9 11 4 10 4 2 3 6 12 9 -6 -16 -20 -20 -20 -20 -20 -10 -20 -20 -20 -20 -20 -20
-20 -20 -20 -20 -20 -20 -20 -20 -20 -20 -20 -20 -20 -16 -12 -13 -20 -20 -20 -20 -20 -20 -20 -20 -20 -20 -20 -20 -20 -20 -20 -20 -20 -20 -20 -20 -20 -20
-20 -20 -20 -20 -20 -20 -20 -20 -20 -20 -20 -20 -20 -20 -20 -20 -13 -20 -20 -20 -20 -20 -20 -20 -20 -20 -20 -20 -20 -20 -20 -20 -20 -20 -20 -20 -20 -20
-20 -20 -20 -20 -20 -20 -20 -20 -20 -20 -20 -20 -20 -20 -20 -20 -20 -20 -20 -20 -20 -20 -20 -20 -20 -20 -20 -20 -20 -20 -20 -20 -20 -15 -20 -2 -4 -20
-20 -20 -20 -20 -20 -20 -20 -20 -20 -20 -20 -20 -20 -20 -20 -20 -20 -20 -20 -20 -20 -18 -20 -20 -20 -20 -19 -20 -0 -5 -20 -20 -2 3 -16 -20 -20 -20
-20 -20 -20 -20 -20 -20 -20 -20 -20 -20 -20 -20 -20 -20 -20 -20 -20 -20 -20 -11 -1 -20 -20 -20 -20 -15 -11 -4 -18 -20 -20 -20 -20 -20 -20 -13 -10 -18
-20 -20 -20 -7 -20 -20 -20 -20 -20 -20 -20 -20 -20 -20 -20 -20 -20 -20 -20 -20 -20 -20 -20 -20 -20 -20 -20 -3 -4 -20 -20 -20 -20 -20 -20 -19 -7 -16
-20 -20 -20 -20 -20 -20 -20 -20 -20 -20 -20 -20 -20 -20 -20 -20 -20 -20 -19 -19 -20 -20 -7 -20 -20 -20 -20 -19 -10 -20 -20 -20 -20 -20 -20 -20 -20 -20
Wind_Speed
11 12 11 10 10 11 11 12 12 13 12 10 8 10 10 10 11 13 13 16 22 19 22 23 19 15 17 16 16 19 20 19 17 17 18 19 20 21
9 13 13 10 12 11 11 12 11 12 13 10 8 7 7 7 9 13 14 11 14 18 20 19 18 16 17 16 15 18 19 20 20 20 21 21 21 22
13 13 15 15 11 11 11 11 11 11 11 10 8 8 6 8 7 9 10 11 9 15 17 16 16 15 15 15 15 17 17 17 17 21 21 23 23 22
14 14 15 11 15 14 12 14 12 12 10 15 10 8 9 10 10 10 7 7 8 9 12 13 13 13 13 14 15 17 16 17 18 21 18 21 20 22
13 14 16 15 14 12 13 12 10 12 11 11 10 7 8 5 7 7 7 6 5 8 12 12 14 14 15 15 16 14 14 17 21 20 18 18 19 19
13 13 15 15 15 14 12 12 10 13 10 9 9 6 6 5 5 5 6 5 6 5 9 9 7 10 14 13 14 14 15 16 16 16 17 16 16 17
12 13 13 13 13 13 7 9 9 8 7 8 7 6 6 4 6 4 6 6 7 5 6 6 6 6 7 12 16 16 15 14 15 15 15 16 16 15
13 11 11 13 11 11 12 14 8 7 7 6 7 7 8 7 7 8 8 6 6 7 5 5 5 5 7 7 14 14 11 14 15 15 14 14 14 15
12 11 10 7 8 9 9 9 6 5 7 7 8 9 8 9 8 9 9 8 8 3 7 4 4 6 7 6 11 12 10 11 12 13 15 14 13 12
9 10 9 10 8 9 6 5 2 6 4 4 7 4 2 3 4 3 4 6 4 2 2 3 2 4 2 3 7 4 6 5 2 1 2 2 2 4
7 9 8 8 12 13 7 3 3 5 11 17 16 15 15 15 10 2 3 3 4 1 5 1 2 2 2 2 4 11 13 14 14 12 10 9 7 5
7 9 17 14 18 17 6 4 5 3 4 5 5 9 11 11 17 9 3 1 2 2 3 2 1 1 1 1 0 2 3 10 9 9 9 9 9 3
5 5 7 18 18 19 17 9 6 6 8 6 5 5 6 7 6 7 7 5 2 2 3 1 2 1 1 1 2 1 3 3 2 3 5 5 5 5
4 4 5 13 17 19 13 15 14 9 4 5 5 5 4 5 4 5 6 4 4 3 3 2 1 2 2 2 2 1 1 2 1 4 1 1 5 3
5 8 11 11 12 11 17 17 14 6 5 5 5 5 4 3 4 2 4 5 4 5 4 3 2 2 1 2 3 3 4 2 4 1 3 4 4 4
5 4 6 8 11 9 8 9 6 6 5 4 4 3 2 4 5 5 5 5 2 2 4 4 2 0 2 4 5 6 5 4 3 6 5 5 5 5
2 2 3 3 4 4 5 5 5 5 5 4 4 4 4 4 4 4 3 3 3 2 3 2 1 4 6 6 5 6 6 6 5 5 5 8 8 7
2 2 3 3 3 3 3 3 5 5 4 3 3 3 3 3 3 3 2 2 3 3 3 3 2 3 2 3 10 5 4 5 5 4 4 8 10 7
1 1 1 2 2 2 2 2 2 3 3 3 2 2 1 0 1 0 1 2 2 3 4 4 4 3 5 5 2 8 3 4 5 6 5 6 10 11
1 1 1 1 1 1 1 2 2 2 3 3 3 2 1 1 2 3 3 3 3 3 4 4 4 4 4 4 5 5 6 4 5 7 8 7 10 20
2 2 1 1 1 1 1 2 2 3 3 3 4 5 4 3 3 2 2 6 7 3 4 4 5 12 4 4 6 5 4 6 7 7 7 7 8 8
3 2 2 1 2 1 0 1 1 2 3 3 3 4 5 5 5 5 3 3 3 4 5 4 6 4 2 4 7 9 7 7 7 13 14 14 6 5
4 4 3 2 3 2 0 1 1 2 3 3 3 5 5 5 5 5 5 5 4 3 4 5 4 1 2 3 7 7 8 5 3 4 3 8 13 17
Wind_Direction
255 253 252 252 250 251 252 248 252 253 244 237 238 219 226 223 223 217 216 219 224 229 225 237 239 235 236 228 234 237 238 237 231 222 220 221 225 227
254 257 255 252 251 245 242 247 242 243 260 252 235 234 213 229 231 225 228 217 220 222 227 229 231 230 236 234 228 239 240 237 232 231 226 226 224 224
261 259 260 259 257 257 250 243 242 236 239 248 246 237 226 232 235 230 234 230 231 222 226 230 230 227 230 235 234 234 239 242 239 237 235 236 231 225
270 268 264 264 262 256 252 250 243 237 232 245 230 224 226 232 245 234 230 222 229 218 211 221 233 240 237 230 225 230 227 235 235 237 235 239 237 232
280 277 271 267 262 259 244 240 237 236 223 237 233 220 228 218 229 231 231 224 227 236 236 239 238 236 240 240 231 225 223 225 226 224 230 232 235 232
287 281 279 268 258 262 259 251 239 247 225 231 227 215 217 204 219 233 232 217 232 209 220 228 233 242 246 253 244 235 233 231 234 234 232 227 227 228
294 292 287 285 266 270 271 251 246 236 235 234 229 218 213 201 223 221 240 249 231 216 230 223 213 233 250 248 255 241 237 236 237 231 228 228 227 227
293 295 296 299 286 270 257 258 240 231 231 225 225 219 222 226 224 228 236 228 249 196 219 222 176 216 236 237 244 243 233 237 241 233 233 233 232 229
283 291 292 286 287 297 291 276 245 181 234 240 227 222 227 222 220 227 223 228 240 221 227 234 147 203 226 235 238 235 230 227 227 232 235 229 229 235
282 288 308 320 338 328 305 289 21 22 306 258 264 279 343 335 251 281 271 257 256 140 333 251 110 224 183 102 34 98 96 94 113 110 12 333 320 271
32 24 14 358 346 338 304 236 138 94 71 79 78 70 55 36 10 235 214 214 252 121 18 15 22 341 346 92 85 75 75 82 76 62 55 41 29 29
19 25 24 20 14 4 316 226 183 146 116 80 51 42 44 35 31 33 19 74 68 69 7 289 292 51 239 24 155 44 80 51 50 41 50 33 9 359
37 40 29 30 29 27 35 32 49 91 87 76 65 50 44 42 34 24 24 42 25 78 353 20 4 28 102 337 327 27 31 359 7 54 11 7 19 348
33 24 24 37 42 40 38 42 47 53 57 66 63 49 47 40 33 37 21 18 42 46 11 17 72 11 21 337 283 335 288 324 55 337 336 299 312 286
46 37 35 48 52 49 48 48 41 31 42 53 58 55 41 27 44 43 30 28 58 41 31 18 29 21 316 283 317 312 327 288 326 80 320 311 307 302
33 51 53 47 49 61 59 49 48 59 55 50 46 47 33 32 43 43 29 14 22 20 48 42 61 184 264 253 262 269 273 291 291 305 293 283 288 293
341 9 51 50 47 39 47 56 74 66 65 57 50 40 37 28 29 22 26 17 33 351 338 316 258 232 226 226 259 257 269 273 283 301 314 312 307 305
347 0 27 42 47 32 44 42 32 38 45 79 72 48 43 28 18 2 358 341 339 332 318 311 310 328 313 242 218 271 286 286 291 297 297 308 300 308
326 14 23 16 18 53 39 51 61 43 18 29 52 92 103 83 54 89 360 346 342 331 325 335 327 326 316 311 298 217 260 288 300 300 294 298 299 300
288 301 330 342 41 25 35 38 35 18 23 6 2 358 18 27 3 359 352 338 327 327 327 314 309 304 294 305 306 291 234 274 281 299 299 294 282 286
246 264 266 192 114 106 20 17 32 41 62 29 2 343 343 341 339 337 328 337 338 333 320 312 300 309 287 284 274 279 299 305 281 271 280 288 287 282
234 231 223 224 159 156 83 61 37 27 18 17 3 343 328 326 321 318 312 316 317 309 299 287 296 307 291 289 293 300 304 300 290 274 260 237 255 279
217 220 212 208 174 172 46 348 352 342 326 338 346 345 323 316 314 307 306 301 295 287 293 299 294 286 301 288 288 288 287 290 303 311 289 248 261 267